GFSNIL_925_temp_000.txt.gz
Temp
16 15 15 14 12 10 10 9 8 7 6 5 5 5 5 5 5 5 7 7 7 6
15 14 14 12 10 9 7 6 6 6 5 4 4 5 4 5 6 6 6 6 6 6
12 12 12 10 9 7 6 6 7 6 4 3 4 5 5 5 6 6 6 5 5 5
10 10 9 8 7 7 6 7 7 6 5 5 5 5 5 5 5 4 4 4 4 4
9 8 8 7 6 6 6 6 6 5 5 5 5 5 4 4 4 4 3 3 3 3
8 7 7 6 6 6 6 6 5 5 5 5 5 4 4 4 3 3 3 2 2 1
6 6 6 5 5 5 5 5 5 5 5 4 4 4 3 3 2 2 1 0 0 0
5 5 5 4 4 3 5 5 5 4 4 3 3 2 2 1 -0 -1 -1 -1 -1 -2
4 4 4 2 3 4 4 4 4 4 3 2 2 1 -1 -1 -2 -2 -3 -3 -4 -4
3 2 3 3 4 4 3 3 3 2 2 1 0 -1 -1 -2 -3 -3 -4 -4 -4 -5
4 3 3 3 3 3 3 2 2 1 1 -1 -1 -2 -3 -3 -4 -4 -4 -4 -5 -5
3 3 3 3 2 2 1 1 0 -1 -1 -3 -3 -3 -4 -4 -5 -5 -5 -5 -5 -5
3 2 2 2 1 0 0 -0 -1 -2 -3 -3 -4 -4 -5 -5 -5 -6 -6 -6 -6 -5
2 1 1 0 -0 -0 -1 -2 -3 -3 -4 -4 -5 -5 -6 -5 -5 -6 -6 -6 -5 -5

GFSNIL_925_temp_006.txt.gz
Temp
10 10 10 11 11 10 10 8 6 6 5 5 5 5 4 4 3 3 2 2 0 -0
10 10 9 10 10 9 8 6 5 6 6 6 6 6 4 3 2 0 1 1 1 0
9 9 8 8 8 6 6 5 6 6 5 6 6 5 4 3 2 1 1 2 2 3
7 7 7 6 5 5 5 5 5 5 5 5 5 5 4 3 3 3 3 3 3 3
6 6 5 4 4 4 5 5 5 4 4 4 4 4 4 3 3 3 2 2 2 2
5 4 3 3 3 3 4 4 3 3 3 4 4 4 3 3 3 2 2 1 0 -0
3 2 2 2 3 3 3 2 1 1 1 3 3 3 2 2 1 1 -0 -1 -1 -1
3 2 2 2 2 2 2 1 1 1 1 2 2 2 1 0 -0 -1 -1 -1 -2 -3
3 2 1 1 1 2 2 2 2 1 1 1 1 0 -1 -2 -2 -3 -3 -4 -4 -5
2 2 2 2 2 1 1 1 1 0 0 -0 -1 -2 -3 -3 -3 -4 -4 -5 -5 -6
2 2 2 1 1 1 0 -0 -1 -1 -2 -3 -3 -3 -3 -4 -5 -5 -6 -6 -6 -6
1 1 0 0 -0 -1 -1 -1 -2 -3 -3 -4 -4 -5 -5 -5 -6 -6 -6 -6 -7 -7
0 -0 -1 -1 -2 -2 -2 -3 -4 -4 -4 -5 -5 -5 -6 -6 -6 -6 -6 -6 -6 -6
-0 -1 -2 -2 -2 -3 -3 -4 -4 -5 -5 -5 -6 -6 -7 -7 -6 -6 -7 -6 -6 -6

GFSNIL_925_temp_009.txt.gz
Temp
10 9 8 7 7 7 6 5 6 5 4 5 5 5 5 4 3 2 1 1 0 -0
9 8 7 6 6 5 4 4 4 5 5 5 4 5 4 4 4 2 1 0 -0 -0
7 6 6 6 6 4 4 3 4 4 4 4 3 3 3 3 2 1 1 1 1 1
6 5 5 4 3 3 4 4 4 3 3 2 1 2 4 4 3 2 2 2 2 2
4 5 3 2 3 3 3 3 3 3 1 1 2 2 2 2 3 2 2 2 2 2
4 4 2 2 1 2 2 2 2 1 0 0 1 1 2 2 2 2 1 0 -0 -0
3 2 1 1 1 1 1 1 1 0 1 0 1 1 1 1 0 -0 -1 -1 -2 -2
2 2 2 2 2 2 2 2 1 1 0 0 -0 -0 -1 -1 -1 -1 -1 -2 -2 -2
2 2 2 2 1 1 1 0 1 0 0 -0 -1 -1 -2 -2 -2 -2 -2 -3 -3 -4
2 2 1 1 1 0 -0 -1 -1 -1 -2 -2 -3 -3 -3 -4 -4 -3 -4 -4 -4 -4
1 1 0 -0 -0 -1 -1 -2 -2 -2 -3 -3 -3 -4 -5 -5 -5 -5 -5 -5 -5 -5
0 -0 -1 -1 -2 -2 -2 -2 -3 -3 -4 -4 -4 -6 -6 -6 -5 -5 -6 -5 -5 -5
-0 -1 -1 -2 -2 -3 -3 -3 -4 -5 -5 -5 -6 -6 -7 -6 -6 -6 -6 -5 -5 -5
-0 -1 -2 -3 -3 -3 -3 -4 -5 -6 -6 -6 -7 -7 -7 -7 -6 -6 -6 -5 -5 -5

GFSNIL_925_temp_012.txt.gz
Temp
11 10 10 9 9 9 9 8 7 7 7 7 7 6 6 4 3 1 1 1 0 0
9 9 8 8 7 7 7 7 6 6 6 6 6 5 4 3 2 2 1 1 1 1
8 8 7 6 6 6 6 6 6 6 6 5 4 2 1 2 3 3 2 3 3 4
7 6 6 6 5 5 5 5 6 5 4 3 1 0 1 2 3 4 4 4 4 4
6 6 6 5 5 4 4 5 4 3 2 1 1 2 1 2 2 3 3 3 3 3
6 6 5 5 4 4 4 3 2 2 1 1 1 2 2 2 2 3 3 3 2 2
5 4 4 4 4 4 4 3 3 3 3 2 2 2 2 2 2 2 2 1 1 1
5 5 5 4 4 4 3 3 3 2 2 1 1 1 -1 -0 0 1 1 1 0 0
5 4 4 3 3 3 3 2 2 2 1 1 1 -1 -3 -3 -2 -1 -0 0 -0 -0
4 4 3 3 3 2 2 1 1 1 0 0 -0 -2 -3 -5 -3 -2 -2 -1 -1 -1
4 3 3 3 2 2 1 1 1 0 -1 -1 -1 -3 -5 -6 -4 -3 -2 -2 -2 -2
3 3 2 2 2 1 1 0 0 -1 -1 -2 -2 -4 -6 -6 -5 -4 -4 -4 -4 -4
3 2 2 2 1 1 0 -0 -1 -2 -3 -3 -4 -5 -6 -6 -5 -6 -5 -5 -4 -5
2 2 2 1 1 0 -0 -1 -3 -4 -4 -4 -5 -5 -6 -6 -7 -6 -6 -5 -5 -4

GFSNIL_925_temp_015.txt.gz
Temp
13 12 11 10 9 9 9 9 9 9 8 7 6 5 4 3 3 2 2 2 1 1
11 11 10 9 8 8 8 8 8 7 6 6 5 4 3 3 3 3 2 2 2 2
10 9 8 8 8 7 7 7 7 6 6 4 3 3 3 2 3 3 3 2 2 2
10 9 8 8 7 6 6 6 6 5 4 3 2 2 2 2 2 2 2 3 3 4
10 9 8 7 6 5 5 5 5 3 2 2 2 2 2 1 2 2 2 2 3 3
9 8 6 6 5 5 5 5 5 4 3 3 3 4 4 4 3 3 3 3 3 3
8 7 6 6 5 5 5 5 5 5 4 4 4 3 3 2 2 2 2 3 2 2
8 7 5 5 5 5 5 4 4 4 4 3 3 2 0 -0 -0 -0 1 1 2 2
7 5 5 5 5 5 4 4 3 3 3 3 2 0 -1 -2 -2 -2 -1 0 1 1
6 5 5 4 5 4 4 3 3 3 2 2 1 -1 -2 -3 -3 -3 -2 -1 -0 0
6 5 5 4 4 4 3 3 3 2 1 1 0 -1 -4 -5 -4 -3 -3 -2 -1 -1
5 4 4 4 4 3 3 3 2 1 0 -1 -2 -3 -5 -5 -5 -4 -4 -4 -3 -3
6 5 4 4 3 3 3 2 1 -0 -1 -3 -3 -4 -4 -5 -5 -6 -5 -5 -4 -4
3 3 4 3 3 3 3 2 -1 -2 -3 -3 -3 -3 -4 -5 -6 -6 -6 -5 -5 -4

GFSNIL_925_temp_018.txt.gz
Temp
12 11 10 9 8 8 8 8 8 7 7 5 5 4 3 3 3 3 3 3 3 2
11 10 9 9 8 8 7 7 6 6 6 4 4 3 3 3 3 3 3 3 3 2
11 10 9 9 8 7 6 5 6 6 5 4 3 3 3 3 2 2 2 2 2 1
10 10 10 8 6 6 5 5 5 5 5 3 3 3 3 3 2 2 2 2 1 1
10 10 9 7 6 5 5 5 5 5 5 4 4 3 3 3 3 3 2 3 3 3
10 9 8 7 6 5 5 5 5 5 5 4 4 4 4 4 2 1 1 1 1 2
9 8 7 6 5 5 5 5 5 4 4 4 4 3 3 2 1 0 -0 -0 -0 0
9 8 6 6 5 5 5 5 4 4 3 3 3 2 1 -0 -1 -1 -2 -2 -1 -0
8 7 6 5 5 5 5 4 4 3 3 3 2 1 -1 -2 -3 -3 -3 -3 -2 -1
7 7 6 5 5 4 4 4 3 3 2 2 1 -1 -2 -3 -4 -4 -4 -4 -3 -3
7 6 6 5 5 4 4 3 3 3 1 0 -1 -1 -2 -4 -4 -4 -5 -5 -5 -4
5 6 5 5 3 4 3 3 3 2 0 -1 -2 -2 -3 -4 -5 -5 -5 -5 -5 -5
4 3 2 1 2 3 3 3 1 -0 -2 -2 -3 -3 -3 -5 -6 -6 -6 -6 -6 -5
3 1 1 1 3 3 2 2 -0 -2 -2 -3 -3 -3 -5 -6 -6 -7 -6 -6 -6 -6

GFSNIL_925_temp_021.txt.gz
Temp
11 10 10 9 9 8 7 6 6 6 5 5 4 4 3 3 3 3 2 2 3 3
11 10 10 9 8 7 6 6 5 6 5 5 4 4 3 3 3 3 2 2 2 1
10 10 10 8 7 7 6 6 5 5 5 5 4 4 3 3 3 3 3 2 2 2
10 10 9 8 7 7 6 5 5 5 5 5 4 4 4 3 3 3 2 2 1 1
10 10 9 8 7 6 5 5 5 5 4 4 4 3 3 3 2 2 1 0 0 0
10 9 9 7 6 6 5 5 5 4 4 4 3 3 3 2 1 0 -0 -1 -1 -1
9 9 8 6 6 5 5 5 4 4 4 3 3 2 2 1 -0 -1 -2 -2 -3 -3
9 8 7 6 5 5 5 5 4 4 3 3 2 2 1 -0 -2 -2 -3 -3 -4 -4
8 7 6 5 4 2 4 4 4 3 3 2 1 0 -1 -2 -2 -3 -4 -4 -4 -4
6 6 5 4 2 1 4 4 3 3 2 1 -0 -1 -2 -2 -3 -4 -4 -4 -5 -5
5 4 4 3 0 1 2 2 3 1 1 -0 -1 -2 -2 -3 -4 -5 -5 -5 -5 -5
3 2 2 1 1 -0 2 2 2 1 -0 -2 -2 -3 -3 -4 -5 -5 -6 -6 -6 -6
3 2 1 1 1 2 1 1 0 -1 -2 -3 -3 -4 -4 -5 -6 -7 -7 -7 -7 -7
2 2 2 1 1 2 1 -0 -1 -2 -3 -3 -4 -5 -5 -7 -7 -8 -8 -8 -8 -8

GFSNIL_925_temp_024.txt.gz
Temp
11 10 10 9 8 8 7 6 6 6 5 5 4 4 4 3 3 3 2 2 2 2
11 10 10 9 9 8 7 7 6 5 5 5 4 4 4 3 3 3 3 2 2 2
11 10 10 9 9 8 7 6 6 5 5 4 4 4 4 3 3 3 2 2 1 1
11 10 9 9 9 8 7 6 5 5 5 4 4 3 3 3 2 2 1 1 0 0
10 10 9 8 8 7 6 6 5 4 4 4 3 3 3 2 1 1 0 -0 -1 -1
10 10 9 8 7 6 5 4 2 4 4 4 3 3 2 2 1 -0 -1 -2 -2 -3
8 7 7 7 6 5 3 2 2 4 3 3 3 2 1 1 -0 -1 -2 -3 -3 -4
7 7 6 6 5 4 3 1 1 3 3 3 2 1 0 -1 -1 -2 -3 -3 -4 -4
5 5 5 4 4 3 2 1 1 2 2 1 0 -1 -1 -2 -3 -3 -4 -4 -5 -5
4 4 3 3 2 1 -0 -1 -1 1 1 -0 -1 -2 -3 -3 -3 -4 -5 -5 -5 -6
3 3 2 2 -0 -1 -0 0 0 -0 -1 -2 -2 -3 -4 -4 -5 -5 -6 -6 -6 -7
2 2 1 1 1 0 0 0 0 -1 -2 -3 -3 -4 -5 -6 -6 -7 -7 -7 -7 -7
2 2 1 1 1 0 0 -0 -2 -2 -3 -4 -4 -5 -6 -6 -7 -8 -8 -8 -8 -8
1 1 1 1 1 1 -0 -2 -2 -3 -4 -4 -5 -6 -7 -7 -8 -8 -8 -9 -8 -8

GFSNIL_925_temp_030.txt.gz
Temp
12 11 11 11 10 10 9 9 8 8 6 6 5 4 4 3 3 3 3 2 2 1
11 10 9 9 9 9 9 8 7 6 5 4 3 3 2 3 3 3 2 2 2 1
9 9 8 8 8 8 7 7 6 5 5 4 3 3 2 3 3 2 2 2 1 0
9 8 9 8 7 7 7 6 6 5 4 4 3 2 2 2 2 2 1 0 -0 -1
9 8 7 6 6 6 5 5 5 4 3 3 2 2 1 1 1 0 -0 -1 -1 -2
7 6 6 5 5 5 4 3 3 2 1 0 1 0 0 0 -0 -1 -1 -2 -2 -3
6 5 5 4 4 3 2 2 2 1 1 -0 -0 0 -0 -1 -1 -2 -2 -3 -4 -4
5 4 4 4 3 2 1 0 0 0 -1 -1 -0 -1 -1 -2 -2 -3 -4 -4 -5 -5
4 4 3 2 1 1 -0 0 -1 -1 -1 -1 -1 -2 -2 -3 -4 -4 -5 -6 -7 -7
4 3 2 1 0 -0 -1 -1 -1 -1 -1 -2 -2 -3 -3 -4 -5 -6 -7 -7 -8 -8
3 2 1 1 -0 -0 -1 -1 -1 -2 -2 -2 -3 -4 -5 -6 -6 -7 -8 -8 -8 -8
2 1 1 1 0 0 -1 -1 -2 -2 -2 -3 -4 -5 -6 -7 -7 -8 -8 -8 -8 -8
1 1 0 0 0 -0 -1 -1 -2 -2 -3 -4 -5 -5 -7 -7 -7 -8 -8 -8 -8 -8
1 0 -1 -0 -0 -1 -1 -2 -2 -3 -4 -5 -5 -6 -7 -7 -7 -8 -8 -8 -9 -9

GFSNIL_925_temp_033.txt.gz
Temp
12 11 10 9 9 8 8 7 7 7 6 5 5 5 4 3 2 2 2 2 2 1
10 9 9 8 8 8 7 7 7 7 6 5 5 4 3 3 2 2 2 2 1 1
9 8 8 8 7 7 7 6 6 6 5 4 3 3 3 2 2 1 1 1 1 0
8 8 8 7 7 6 6 5 4 3 3 2 2 1 1 1 1 0 1 0 -0 -1
8 8 7 6 6 5 4 3 2 2 2 1 1 1 1 0 0 0 -0 -1 -1 -1
8 7 6 5 4 4 2 1 1 1 1 0 0 -0 -0 0 0 -1 -2 -2 -2 -2
6 5 4 4 3 2 1 0 0 0 -0 -0 -1 -1 -1 -1 -2 -2 -2 -3 -3 -4
5 4 4 3 2 2 0 -0 -1 -1 -1 -1 -1 -2 -2 -2 -3 -3 -3 -4 -4 -5
4 3 3 2 1 0 -0 -1 -1 -1 -1 -2 -2 -2 -2 -3 -3 -4 -4 -5 -5 -6
3 3 2 1 0 0 -0 -1 -1 -2 -2 -2 -3 -3 -3 -4 -5 -5 -5 -6 -6 -6
3 2 1 0 0 -0 -1 -1 -1 -2 -3 -3 -3 -3 -4 -5 -5 -6 -6 -6 -7 -6
2 1 0 0 -0 -1 -1 -1 -2 -2 -3 -3 -4 -4 -5 -6 -6 -6 -7 -7 -7 -7
1 0 -0 -1 -1 -1 -1 -1 -2 -3 -3 -3 -4 -5 -5 -6 -6 -6 -7 -7 -7 -7
0 0 -0 -1 -2 -2 -2 -3 -3 -3 -3 -4 -5 -6 -6 -7 -6 -7 -7 -7 -7 -8

GFSNIL_925_temp_036.txt.gz
Temp
12 12 12 11 10 10 10 9 8 8 7 7 7 6 6 5 5 5 4 4 3 3
11 11 10 10 9 9 8 8 8 7 7 7 6 6 6 5 5 5 5 4 3 3
10 10 9 9 8 8 7 7 7 6 6 6 5 5 5 4 4 4 4 3 3 3
10 9 8 8 7 7 6 6 5 5 4 5 5 4 2 2 2 3 3 2 2 2
9 9 8 7 7 6 5 5 4 4 4 4 3 2 3 2 2 2 2 2 2 2
9 8 8 7 6 5 4 4 4 3 2 2 2 2 1 1 2 2 1 1 1 1
8 7 6 6 5 4 4 3 3 3 2 1 2 2 2 1 1 1 1 0 -0 -1
7 6 5 5 4 4 3 3 3 2 1 1 1 1 0 1 1 0 -0 -1 -1 -2
6 5 5 4 3 3 3 3 2 2 2 1 1 -2 -2 -2 -1 -1 -1 -1 -2 -2
5 5 4 4 3 3 3 3 2 1 1 1 0 -2 -3 -3 -2 -2 -2 -2 -3 -3
5 4 4 3 3 3 2 2 1 0 0 0 -0 -3 -3 -4 -3 -3 -3 -3 -3 -3
4 4 4 3 3 2 2 2 1 0 1 -0 -1 -3 -4 -4 -3 -3 -3 -4 -4 -5
4 3 3 3 2 2 2 2 0 0 -0 -1 -2 -3 -4 -5 -4 -4 -4 -4 -4 -5
3 3 2 2 2 1 1 1 0 -1 -1 -2 -2 -3 -5 -5 -6 -5 -5 -4 -4 -5

GFSNIL_925_temp_042.txt.gz
Temp
15 14 14 14 13 12 12 11 10 9 9 8 8 7 7 7 7 7 7 5 5 4
14 13 13 12 12 11 10 10 9 8 8 7 7 7 6 6 6 6 5 4 4 4
13 12 12 11 11 10 10 9 8 8 7 7 6 6 5 5 4 4 4 3 3 3
12 12 11 11 10 10 9 8 7 7 7 6 6 5 4 4 4 3 3 3 3 3
11 11 11 11 10 9 8 7 7 6 6 6 5 4 3 3 3 2 2 3 3 3
11 12 11 11 10 9 8 7 6 6 6 5 4 3 3 3 3 3 3 3 2 2
12 12 11 10 9 8 7 6 6 5 5 5 4 3 3 3 2 2 2 2 2 1
12 11 10 9 8 7 6 6 5 5 5 4 3 3 3 2 1 1 1 1 1 1
10 10 9 8 7 6 6 6 6 5 5 4 3 2 1 1 1 -0 -0 0 0 -0
9 8 8 7 7 6 6 5 5 4 4 3 3 2 1 0 -0 -1 -1 -0 -0 -1
9 8 7 7 7 6 6 5 4 4 3 2 2 2 0 -1 -1 -2 -1 -1 -1 -1
8 7 6 6 6 6 5 5 4 4 3 2 2 -0 -1 -1 -2 -2 -2 -2 -2 -2
6 6 6 5 5 5 4 4 4 3 2 1 0 -1 -1 -2 -3 -3 -3 -3 -3 -3
6 5 5 5 4 4 3 3 3 2 1 0 -0 -1 -2 -2 -2 -3 -4 -4 -4 -3

GFSNIL_925_temp_045.txt.gz
Temp
15 15 15 14 13 12 12 11 10 10 9 9 8 7 7 6 6 5 5 4 4 4
15 14 14 13 13 12 11 10 10 9 8 8 7 6 6 5 5 4 4 4 3 3
14 13 13 12 11 11 10 10 9 8 7 7 6 6 5 4 4 3 3 3 3 3
13 12 12 11 10 10 9 9 8 7 7 6 6 5 5 4 3 3 3 2 2 3
12 11 11 11 10 9 9 8 7 7 6 6 5 5 4 4 3 2 2 2 2 2
11 11 11 10 8 9 8 7 7 6 6 5 5 4 4 3 3 2 2 1 1 1
11 11 10 10 9 8 7 7 6 6 5 5 5 4 4 3 2 2 2 1 1 1
11 11 9 9 9 7 7 6 6 5 5 5 4 3 3 3 2 2 1 1 0 0
10 9 8 7 7 7 6 6 6 5 5 4 3 3 3 2 1 1 0 -0 -0 -0
9 7 8 7 7 6 6 6 5 5 4 4 3 3 2 1 0 -0 -1 -1 -1 -1
7 7 7 7 6 6 5 5 5 4 4 3 3 2 1 0 -0 -1 -1 -1 -2 -2
6 6 6 5 4 4 4 5 4 4 4 3 2 2 1 -0 -1 -3 -2 -2 -2 -2
5 4 4 5 4 4 4 4 4 3 3 2 2 1 -0 -1 -2 -3 -2 -2 -3 -3
4 5 4 3 3 4 3 3 3 3 2 2 1 0 -0 -1 -2 -2 -3 -3 -3 -4

GFSNIL_925_temp_051.txt.gz
Temp
15 14 14 14 13 12 11 10 9 8 7 7 7 7 7 6 5 5 4 4 3 3
15 14 14 13 13 11 10 9 7 6 6 7 8 7 6 5 5 4 3 3 3 2
14 14 14 12 11 10 8 7 7 7 7 7 7 6 5 5 4 4 4 3 2 2
14 13 12 12 10 8 7 7 7 7 6 6 6 6 5 5 4 4 4 3 2 2
14 12 11 10 9 9 8 7 7 6 6 6 6 6 5 5 4 4 3 3 2 2
11 10 10 9 9 8 7 7 6 6 6 6 6 5 5 5 4 3 3 3 2 2
9 9 9 9 7 7 7 6 6 6 6 6 5 5 5 4 4 3 3 2 1 1
9 9 9 8 7 7 6 6 6 6 6 5 5 5 5 4 4 3 3 2 1 0
9 8 8 7 7 6 6 6 5 5 5 5 5 5 4 4 3 3 2 2 1 -0
8 7 6 5 5 5 5 5 4 5 5 5 5 4 4 3 3 2 1 1 -0 -1
5 5 5 6 5 5 4 3 4 4 4 4 4 4 3 3 2 2 1 0 -1 -1
6 5 5 4 3 3 3 3 4 4 3 3 3 3 3 2 2 1 1 -0 -1 -2
5 4 4 3 3 3 3 3 3 3 3 3 3 3 3 2 1 1 0 -1 -1 -2
4 4 3 3 3 3 3 3 3 3 3 3 3 3 2 2 1 0 -0 -1 -1 -2

GFSNIL_925_temp_054.txt.gz
Temp
12 13 13 13 13 12 12 11 10 8 8 7 7 6 7 7 6 5 5 5 4 3
13 13 13 13 13 13 11 10 8 8 7 6 6 6 6 6 6 5 4 4 3 3
14 13 13 13 12 11 10 9 7 7 7 6 6 6 5 5 5 5 4 4 3 3
14 14 13 12 11 10 9 7 7 8 6 6 6 5 5 5 4 4 4 3 3 2
13 12 11 10 10 9 8 7 8 6 6 5 5 5 4 5 4 4 3 3 3 3
10 9 8 8 7 8 8 7 6 6 5 5 5 5 5 4 4 4 3 3 3 2
8 7 8 8 8 8 7 6 5 5 5 5 5 5 5 4 4 4 3 3 2 2
8 8 8 8 7 6 6 5 5 5 4 4 5 5 5 5 4 4 3 3 2 2
8 8 7 6 6 5 5 5 5 4 4 3 4 5 4 4 4 3 3 2 2 1
7 6 6 5 5 5 5 4 3 3 3 4 4 4 4 4 3 3 3 2 2 1
5 5 5 5 5 4 4 3 3 3 4 4 4 4 3 3 3 3 2 2 1 0
5 5 4 4 4 4 3 3 3 3 3 3 3 3 3 3 3 2 2 1 1 0
4 4 4 4 4 3 3 3 3 3 3 2 2 3 3 2 2 1 1 1 1 0
4 3 3 3 3 3 2 2 2 2 2 2 3 2 2 2 2 1 1 1 0 0

GFSNIL_925_temp_057.txt.gz
Temp
15 12 12 13 13 12 11 10 11 10 9 9 8 7 6 5 5 5 5 5 5 4
14 12 12 13 12 11 10 9 10 10 8 7 7 7 6 5 5 6 5 5 4 3
13 12 12 12 11 10 9 9 10 8 7 7 7 6 5 5 5 5 4 4 4 3
12 11 12 12 11 11 10 10 7 7 6 6 6 5 5 5 5 4 4 4 4 3
12 12 11 11 11 10 9 6 7 7 6 6 4 4 4 4 4 3 3 4 3 2
11 10 9 8 8 7 6 6 6 6 5 4 4 4 4 4 4 4 4 3 3 2
8 7 7 7 7 7 5 6 5 5 4 4 4 4 4 5 5 4 3 3 2 2
7 7 6 5 5 6 6 6 5 4 4 4 4 3 3 4 4 3 3 3 3 2
6 5 5 6 6 5 5 4 4 4 4 4 3 3 3 3 3 3 3 3 2 2
6 6 5 5 4 4 3 3 3 4 3 2 3 3 4 4 3 2 3 2 2 2
5 4 4 4 3 3 3 3 3 3 2 3 4 4 3 3 3 2 2 2 2 1
4 4 4 4 4 4 4 3 3 3 3 3 3 3 3 3 2 2 2 2 2 1
5 4 4 3 3 3 3 2 2 2 2 2 2 2 2 2 1 0 1 1 1 1
4 3 3 3 2 2 1 1 1 1 1 2 2 2 2 2 1 0 0 0 0 -0

GFSNIL_925_temp_060.txt.gz
Temp
15 15 14 14 13 14 12 11 10 10 10 11 9 8 7 8 6 5 6 5 5 6
13 13 14 12 12 11 11 11 10 10 10 8 7 6 7 6 5 5 6 5 4 5
13 13 12 12 12 10 12 10 9 8 8 7 6 6 6 6 5 5 4 4 5 6
13 13 12 12 11 11 11 9 8 8 7 6 5 5 5 4 4 4 4 5 5 6
13 12 12 11 10 10 8 7 6 5 6 5 6 5 4 4 4 4 5 6 6 5
12 11 10 9 8 7 6 5 5 5 4 5 4 4 4 4 4 6 5 6 6 5
10 9 9 8 7 7 6 5 4 4 5 5 5 4 4 4 5 5 6 5 5 5
7 7 6 6 5 5 5 4 5 5 4 4 3 3 3 4 4 5 6 5 5 5
6 5 5 5 5 5 4 4 4 4 4 4 3 3 3 3 4 5 5 5 5 5
7 6 6 5 4 3 3 4 4 3 3 3 3 3 3 3 3 4 5 5 5 5
6 5 5 4 4 4 4 3 3 3 3 3 4 4 3 3 2 4 4 4 4 4
6 5 4 4 4 4 3 3 3 4 4 4 4 3 3 2 2 3 3 4 4 4
6 5 4 4 4 5 5 4 4 4 4 3 3 3 2 1 1 2 2 2 3 3
4 5 5 5 4 4 4 3 3 2 2 2 2 1 0 -1 -1 -0 -0 0 1 1

GFSNIL_925_temp_063.txt.gz
Temp
19 19 18 18 15 15 15 14 14 13 11 10 10 10 11 9 8 7 7 6 6 7
19 18 18 16 15 14 14 14 13 11 10 9 9 10 9 8 6 6 6 5 5 5
17 16 16 15 14 13 12 13 11 10 9 8 8 9 7 5 5 5 4 4 5 4
16 14 14 14 13 12 12 11 9 9 8 7 8 6 4 5 5 4 4 4 4 6
14 13 13 13 12 12 11 10 9 9 7 7 6 5 4 4 4 4 3 3 5 7
13 13 12 12 11 10 9 8 8 7 5 5 4 5 5 5 5 4 4 5 7 7
11 11 10 9 8 8 7 6 5 5 5 5 5 5 5 5 4 4 4 6 6 7
8 8 7 6 6 5 5 5 5 5 5 4 5 4 4 4 3 4 4 5 6 6
6 6 5 5 5 5 4 4 4 4 5 5 4 4 4 3 2 3 4 6 7 7
8 7 7 6 5 5 4 5 5 5 4 4 3 3 3 3 3 4 5 5 6 6
9 8 7 7 7 5 4 4 4 4 3 4 4 4 4 3 3 4 4 5 5 5
8 7 7 6 5 5 4 4 4 5 6 6 6 4 3 2 3 3 3 4 4 4
8 7 6 5 5 5 6 7 6 6 5 5 4 3 2 1 1 1 1 1 1 1
6 6 7 7 7 6 6 6 5 4 4 3 3 2 0 -1 -1 -1 -2 -2 -1 -1

GFSNIL_925_temp_066.txt.gz
Temp
20 20 19 19 19 17 17 16 16 14 14 12 12 10 10 10 9 8 7 7 7 7
20 19 19 19 19 17 16 15 13 14 12 12 10 10 9 9 7 7 6 6 6 5
20 19 18 18 17 15 14 13 14 13 12 11 9 9 8 7 7 6 6 5 5 4
20 19 17 16 15 15 14 13 13 12 10 9 9 8 7 7 6 6 5 5 5 5
19 16 15 15 13 13 12 12 11 10 9 8 8 7 7 6 5 5 5 5 4 5
14 13 13 13 13 12 12 11 10 9 8 7 6 5 5 5 5 5 5 5 4 4
12 12 12 11 10 10 9 8 7 7 6 6 5 5 5 5 5 4 4 4 4 5
9 10 9 8 8 7 7 6 6 6 5 5 5 5 5 4 4 4 4 4 4 5
8 7 6 6 5 5 5 5 5 5 5 4 5 4 4 4 3 3 3 4 4 5
6 6 5 5 5 5 4 4 4 5 5 4 4 4 4 3 3 3 3 4 5 5
7 6 6 6 6 5 4 4 4 4 5 4 4 5 4 3 3 3 3 4 4 4
9 8 7 6 5 4 4 4 4 5 5 5 4 4 3 2 2 2 1 1 1 1
8 7 6 6 5 5 5 5 6 6 6 5 3 2 2 1 0 -1 -1 -1 -1 -2
7 6 6 6 6 6 7 6 5 4 4 3 2 1 0 -0 -1 -3 -3 -4 -4 -3

GFSNIL_925_temp_069.txt.gz
Temp
19 20 20 20 19 19 18 17 16 15 15 15 14 13 12 11 10 9 9 9 8 7
19 19 19 19 19 19 17 18 17 15 14 14 13 12 11 10 10 9 8 8 6 6
19 18 18 18 17 17 16 17 15 13 12 13 12 11 10 10 8 8 7 7 6 7
19 19 19 17 16 15 15 14 13 13 13 12 11 10 10 8 8 7 7 6 6 7
19 18 18 15 15 14 14 13 13 13 11 10 10 9 8 8 6 5 5 6 6 6
16 17 16 14 13 13 13 12 12 12 11 9 8 7 7 7 6 6 6 5 5 5
12 13 12 12 12 12 12 11 10 10 9 8 7 6 6 6 5 5 5 5 4 4
11 10 10 10 10 10 9 9 8 7 7 6 6 5 6 5 5 4 4 4 4 4
9 8 8 8 8 7 7 6 6 6 6 5 5 5 5 5 4 4 4 4 4 4
8 7 6 6 6 6 6 5 5 5 5 5 5 5 4 4 3 3 3 3 3 3
6 6 6 5 5 5 5 5 5 5 5 5 5 4 4 3 3 2 2 2 2 1
6 6 5 5 4 4 4 5 5 5 4 4 4 4 3 2 2 2 1 1 0 -0
7 6 6 5 4 5 5 5 5 4 4 4 3 2 2 1 1 0 -1 -1 -2 -3
7 7 6 5 5 5 5 5 4 3 2 2 2 1 0 -0 -1 -2 -3 -3 -4 -4

GFSNIL_925_temp_072.txt.gz
Temp
17 16 17 17 17 17 17 16 17 17 16 16 17 15 14 14 13 12 12 10 10 9
16 16 16 16 17 18 17 16 16 17 17 16 14 14 14 13 12 11 10 10 9 9
17 17 17 16 17 17 17 16 16 17 16 14 13 14 13 12 11 10 9 9 8 8
17 17 17 16 16 16 14 14 15 15 13 13 12 13 12 11 10 9 8 7 7 6
17 16 15 14 15 14 14 14 13 13 13 12 12 11 11 10 9 8 7 6 6 6
17 14 15 14 15 15 15 15 12 12 12 11 11 10 9 9 8 7 6 6 5 5
15 14 14 14 14 14 13 11 11 11 11 10 10 9 8 7 7 6 6 5 5 5
12 13 12 12 12 12 11 11 11 11 9 8 8 7 6 6 6 5 4 4 4 4
11 10 11 11 11 11 10 10 9 8 7 6 6 6 6 5 5 4 4 4 4 3
10 10 9 9 9 8 8 7 7 6 6 5 5 5 5 4 4 4 3 3 3 2
8 7 7 7 7 6 6 6 5 5 5 5 5 4 4 4 3 2 2 1 1 1
6 6 5 5 5 5 5 5 5 5 4 4 4 3 3 3 2 2 1 0 -0 -0
6 5 5 5 5 5 5 5 4 4 4 4 3 3 3 2 1 1 -0 -1 -2 -2
6 6 7 5 4 4 4 4 4 3 2 2 2 1 1 0 -0 -1 -2 -2 -3 -4

GFSNIL_925_temp_075.txt.gz
Temp
15 16 16 16 16 16 16 17 17 16 16 16 16 15 14 13 13 13 13 12 12 11
15 15 14 15 15 16 16 16 15 16 17 16 16 15 14 13 13 12 12 12 11 10
14 15 14 15 15 16 15 15 14 15 15 15 15 14 13 13 12 12 11 11 10 9
15 15 15 15 15 15 15 14 14 14 14 14 14 13 12 12 12 11 10 10 9 9
17 16 16 16 16 16 14 14 15 13 14 12 13 12 12 12 11 10 9 9 8 7
15 15 15 15 16 15 14 14 15 13 13 12 13 12 12 11 10 9 9 8 7 6
16 16 15 16 16 14 14 14 13 12 11 11 11 11 11 9 8 8 7 7 6 5
15 13 15 14 13 13 13 12 12 11 10 11 10 9 9 8 7 7 6 5 5 4
13 12 13 13 13 12 12 11 10 10 10 9 8 8 8 7 6 5 4 4 3 3
11 11 11 11 11 10 9 9 9 8 8 7 7 6 6 6 5 4 4 3 2 2
9 9 8 8 8 8 7 7 7 6 6 6 5 5 4 4 4 3 2 2 1 1
8 8 7 7 6 6 6 6 6 5 5 5 4 4 3 3 3 2 1 0 -0 -1
7 7 7 6 6 5 5 5 4 4 4 4 3 3 2 2 2 1 0 -1 -1 -2
7 6 6 5 5 5 4 4 3 3 2 2 2 1 1 1 1 0 -1 -2 -2 -3

GFSNIL_925_temp_078.txt.gz
Temp
13 14 14 15 15 15 16 16 16 16 16 16 16 16 16 15 14 14 13 12 12 11
13 13 14 14 15 15 15 15 16 16 16 16 15 15 14 13 14 14 13 12 12 11
13 13 14 14 15 15 15 16 16 15 16 16 15 15 14 12 12 12 12 13 12 10
14 14 15 15 16 16 16 16 16 16 15 15 14 14 13 12 12 12 11 11 10 9
15 16 16 15 15 14 14 15 15 15 14 14 15 13 13 13 12 12 11 11 9 9
14 14 15 14 14 14 14 14 14 14 14 12 13 12 12 12 11 11 11 9 8 7
13 14 14 13 14 14 14 14 14 14 13 12 12 11 11 11 11 10 8 8 7 7
14 14 14 14 14 13 13 13 13 12 12 12 12 11 10 10 9 8 7 6 5 5
13 13 13 13 13 13 12 12 12 12 12 11 10 10 10 8 7 6 5 4 4 4
11 11 12 12 12 12 12 12 11 10 10 9 9 8 7 6 6 5 4 4 3 2
11 11 11 11 11 10 9 9 9 8 7 7 6 5 5 5 5 4 3 2 2 1
10 10 10 8 8 8 7 6 6 5 5 5 4 4 4 4 3 2 1 0 -0 -0
9 8 7 7 6 5 5 4 4 4 4 4 3 3 3 3 2 1 -1 -1 -2 -1
7 7 7 6 5 4 4 4 3 3 2 2 2 1 2 1 1 1 -1 -2 -3 -3

GFSNIL_925_temp_081.txt.gz
Temp
12 13 13 13 14 14 14 15 16 16 15 15 15 15 15 14 13 12 13 12 11 11
12 13 13 14 15 15 15 16 16 16 16 16 15 15 14 14 14 13 13 12 12 12
12 12 13 13 14 15 15 15 16 16 15 16 15 15 14 13 14 12 12 11 11 11
12 12 13 13 14 15 15 15 15 15 15 15 15 15 15 14 13 13 12 12 11 11
12 13 13 14 15 14 14 14 14 14 14 14 14 14 14 13 11 12 11 11 12 12
13 12 13 15 13 13 13 13 13 14 13 13 13 14 14 13 12 12 12 11 11 10
13 13 15 14 13 13 13 13 13 14 14 13 13 13 12 12 11 12 11 10 9 8
14 14 15 14 13 13 14 14 14 13 13 12 12 12 12 12 11 10 9 8 7 7
14 14 14 13 12 12 13 13 13 12 12 12 12 12 12 11 10 9 7 6 5 4
13 13 13 12 11 11 12 12 12 12 12 11 11 10 9 9 8 6 5 4 3 2
12 11 11 11 11 12 12 11 10 9 9 8 7 6 6 6 5 4 3 2 2 2
10 11 11 10 10 9 8 7 7 6 6 6 4 4 4 5 3 2 0 -0 -0 -0
11 10 9 9 7 6 6 5 4 4 3 3 3 3 3 4 2 0 -1 -2 -2 -2
9 8 7 6 5 5 4 3 2 2 1 1 1 1 2 2 2 1 -1 -2 -3 -3

GFSNIL_925_temp_084.txt.gz
Temp
14 13 13 14 14 15 16 16 16 15 15 15 15 14 14 15 15 15 14 14 14 15
14 15 15 15 14 15 16 16 15 15 15 15 15 15 15 15 15 15 14 14 14 14
15 15 15 15 15 16 16 15 16 15 15 15 15 15 15 15 15 15 15 14 13 13
15 15 15 15 15 15 15 15 15 15 15 15 15 16 15 15 15 15 14 13 12 12
15 15 15 15 15 15 15 15 15 15 16 15 16 15 15 15 14 13 12 13 11 11
15 15 15 15 15 15 15 16 16 16 15 15 15 15 15 15 14 13 14 11 11 11
15 15 15 15 15 15 15 15 16 15 15 15 15 15 15 14 12 12 11 11 11 11
15 15 15 15 15 14 15 15 15 15 15 15 14 14 14 13 12 11 11 11 10 9
16 16 16 16 16 15 14 15 15 14 15 14 14 13 12 12 12 11 10 9 8 7
17 17 17 16 16 16 14 14 13 14 14 13 12 12 11 11 10 9 8 7 5 4
17 17 17 17 17 15 12 11 11 11 11 10 9 9 8 8 7 6 4 3 3 2
17 16 15 13 11 10 11 10 9 8 7 7 6 6 6 6 4 2 1 1 1 1
13 11 11 10 10 8 8 6 5 4 4 3 3 4 4 4 2 0 -1 -1 -2 -1
10 10 9 8 7 6 5 3 2 1 0 0 1 1 2 2 1 -1 -2 -3 -4 -3

GFSNIL_925_temp_087.txt.gz
Temp
12 13 13 13 13 13 14 14 15 15 15 16 16 16 16 16 15 15 15 15 15 16
13 13 14 13 13 14 14 15 16 17 16 16 16 16 16 15 16 16 16 15 15 15
14 14 14 14 14 15 15 16 17 17 16 15 16 16 16 16 16 16 16 15 15 15
14 15 15 15 15 15 15 16 16 17 16 16 16 16 16 16 16 16 16 15 15 15
15 15 15 16 16 15 16 16 16 16 16 16 16 16 16 16 16 16 16 16 15 14
16 16 16 16 16 16 16 16 16 17 17 16 16 17 16 16 16 16 16 16 15 15
18 17 17 16 16 16 16 16 16 16 17 16 17 17 17 17 17 16 16 15 14 12
18 18 17 17 17 16 16 16 16 16 17 17 17 17 16 17 16 16 15 14 12 11
18 18 18 17 17 17 16 16 16 17 17 17 17 16 16 15 15 14 13 12 11 10
18 18 18 17 17 17 16 16 16 16 16 16 16 15 14 14 13 12 11 9 7 5
19 19 18 18 18 18 17 16 15 15 14 13 12 12 13 12 10 8 6 4 3 3
20 19 19 19 18 18 16 12 11 11 10 10 8 7 7 7 5 4 2 1 1 1
20 19 19 19 12 9 10 9 8 6 4 3 3 4 5 5 3 1 -1 -1 -1 -1
19 17 12 9 8 7 5 3 2 1 -0 -0 0 0 2 2 1 -0 -2 -2 -3 -3

GFSNIL_925_temp_093.txt.gz
Temp
12 11 11 12 12 12 12 12 13 13 14 14 14 15 15 16 15 15 15 16 15 16
12 12 12 12 12 12 13 13 13 14 14 14 15 15 15 15 15 15 16 16 16 16
12 12 12 12 12 13 13 13 13 14 14 15 15 15 15 14 14 15 16 15 15 15
12 12 12 12 12 13 13 13 13 14 14 15 15 15 15 15 15 15 15 15 15 15
12 12 12 12 12 13 13 13 13 14 14 14 15 15 15 15 15 15 15 15 15 15
13 12 12 12 13 13 13 13 13 13 14 14 14 14 15 15 15 15 15 15 15 16
13 13 12 12 12 12 13 13 13 13 13 14 14 15 15 15 15 15 15 16 15 16
14 14 13 13 12 13 13 13 13 13 13 13 14 15 15 15 15 15 15 15 15 15
14 14 13 13 13 13 13 13 13 13 13 14 14 15 15 15 15 15 15 15 15 13
14 14 14 14 14 14 14 14 14 14 14 13 14 15 15 15 16 15 14 14 13 10
15 14 14 14 14 14 14 14 14 14 14 14 14 15 15 15 15 13 11 9 8 6
17 16 15 15 15 15 14 14 14 14 14 14 12 11 13 14 11 7 4 3 2 2
18 17 16 16 16 16 15 12 11 10 10 9 9 7 9 10 7 3 -0 -1 -1 -1
18 18 17 16 14 12 9 7 5 4 2 2 3 3 4 6 4 -0 -3 -4 -4 -4

GFSNIL_925_temp_096.txt.gz
Temp
11 11 10 10 10 11 11 11 12 12 12 12 13 13 13 14 16 16 16 16 16 16
11 11 11 11 11 11 11 11 11 11 11 11 12 13 15 15 15 15 16 16 16 16
11 11 11 11 12 12 12 12 12 12 12 12 12 12 12 13 14 14 15 15 15 14
11 11 11 11 12 12 12 12 12 12 12 11 11 12 13 14 14 14 15 14 14 15
12 12 11 12 12 12 12 13 13 13 13 13 13 14 14 14 14 15 13 14 14 15
12 12 12 12 12 12 12 13 13 13 13 13 14 14 14 14 14 14 14 15 15 15
12 12 12 12 12 12 12 12 13 12 12 13 13 14 14 14 14 14 15 15 15 15
13 12 12 12 12 12 12 12 12 12 12 13 13 13 13 13 14 14 14 14 15 15
13 13 13 12 12 12 12 12 12 11 12 12 12 13 13 13 13 14 14 14 15 14
13 13 13 13 12 12 12 12 11 11 11 12 12 13 13 14 14 14 14 14 13 12
13 13 13 13 13 13 12 12 12 12 12 12 12 13 13 13 14 13 13 13 12 11
13 13 13 13 13 13 13 13 12 12 12 12 12 12 13 13 13 10 8 7 7 5
14 13 13 13 13 13 13 13 12 12 12 13 12 12 13 13 11 6 4 2 0 1
12 14 14 13 13 13 12 11 8 7 6 6 5 4 5 6 8 5 -1 -3 -3 -3

GFSNIL_925_temp_102.txt.gz
Temp
12 11 11 11 10 11 11 11 12 12 12 10 10 11 12 13 14 14 15 15 15 16
11 11 11 11 10 11 11 11 11 12 11 10 10 10 10 11 11 14 14 14 15 15
11 11 11 11 10 11 11 11 11 11 10 10 10 10 10 10 11 13 12 11 14 14
11 11 11 11 10 11 11 10 10 10 10 10 10 10 10 11 12 11 11 12 12 14
11 11 11 10 10 11 11 11 10 11 10 10 10 10 11 11 11 11 11 12 13 13
10 10 10 10 10 11 11 12 11 11 11 10 10 10 10 10 10 10 11 12 13 13
10 10 10 10 11 11 11 11 11 11 11 11 11 11 10 10 10 11 11 11 11 12
10 10 10 10 11 11 11 11 12 11 11 11 10 10 10 10 10 11 11 12 12 12
11 10 10 11 11 11 11 11 11 11 11 11 11 11 11 11 11 11 11 11 11 13
12 11 11 11 11 11 11 11 11 11 11 11 11 11 12 11 11 11 11 11 11 12
12 12 12 11 11 11 11 11 11 11 11 11 11 12 12 12 11 11 11 12 12 12
11 11 12 12 12 11 11 11 11 11 11 11 11 11 12 12 12 11 11 11 11 11
6 8 10 11 12 12 12 11 11 11 11 10 10 11 12 11 11 9 9 9 8 8
3 4 5 9 11 12 12 11 10 9 6 7 7 8 9 9 10 8 6 4 2 1

GFSNIL_925_temp_105.txt.gz
Temp
12 12 12 12 11 11 12 12 12 12 12 11 11 10 10 11 12 12 13 13 14 15
12 12 13 11 11 11 11 11 12 12 12 11 10 10 10 11 12 12 12 12 14 15
11 12 12 11 10 11 11 11 11 12 12 11 11 10 10 11 11 11 11 12 13 13
11 11 11 11 11 11 11 11 11 11 11 11 10 10 10 10 10 11 11 11 12 11
10 11 11 11 11 11 11 10 10 11 11 10 10 10 9 9 9 10 10 11 11 11
10 10 11 10 10 11 11 11 10 10 10 10 10 10 10 10 10 10 11 12 10 11
10 10 10 10 10 10 10 10 10 11 10 10 10 10 10 10 10 10 10 10 10 11
10 10 10 10 10 10 10 11 11 10 10 10 10 10 10 10 10 10 10 10 10 10
10 10 10 10 10 10 10 11 10 10 10 10 10 10 10 10 10 10 10 10 10 11
11 10 10 10 10 10 11 11 11 10 10 10 10 11 11 11 11 10 10 10 10 11
11 11 11 11 11 11 11 10 10 10 11 10 11 11 11 11 11 11 11 11 11 11
9 11 11 11 11 11 11 10 10 10 10 10 10 11 11 11 10 10 10 10 10 10
4 5 7 9 11 11 11 11 11 10 10 10 9 9 10 11 10 9 9 8 8 8
2 2 3 5 7 10 11 10 8 5 4 5 5 7 8 9 8 8 6 5 4 3

GFSNIL_925_temp_108.txt.gz
Temp
16 17 17 16 15 14 14 14 13 12 12 12 11 11 11 11 11 11 11 11 12 13
14 17 17 16 15 14 14 13 13 13 12 11 11 11 11 11 11 11 11 12 12 13
14 16 16 15 13 13 13 13 13 12 12 11 11 10 10 10 11 11 11 11 12 12
14 15 15 14 12 12 13 13 13 13 12 11 11 11 10 10 10 10 11 11 11 11
14 15 14 13 12 12 13 13 13 12 11 11 11 10 10 10 10 10 10 11 11 11
12 14 13 13 12 12 13 13 12 12 11 11 11 10 10 10 10 10 11 10 11 11
11 12 13 13 12 12 12 12 11 11 11 11 11 10 10 10 9 9 10 10 10 10
11 12 13 13 12 12 12 12 12 11 11 11 11 10 10 10 9 9 10 10 10 11
11 11 12 13 12 12 12 12 12 11 11 11 11 11 10 10 10 10 10 10 10 10
12 11 11 12 12 12 12 12 12 12 11 11 11 11 10 10 10 10 10 10 10 10
11 12 12 12 12 12 13 13 13 12 12 11 11 11 10 10 10 10 10 10 10 10
7 9 11 11 12 12 12 12 12 12 12 11 10 11 11 10 10 11 11 11 10 11
3 5 6 8 10 11 12 11 11 10 10 10 9 10 10 10 9 9 10 11 10 11
1 2 3 4 6 8 10 9 6 5 4 5 5 6 8 9 9 8 8 5 4 5

GFSNIL_925_temp_111.txt.gz
Temp
16 18 20 20 19 17 16 16 14 13 13 13 12 12 12 11 11 11 11 12 12 13
15 17 19 20 19 18 17 16 14 13 13 12 12 12 12 11 11 11 11 12 12 13
15 17 18 19 18 18 16 16 14 13 13 12 12 11 11 11 11 11 11 12 11 11
14 16 17 18 17 16 15 15 15 13 12 12 12 11 11 11 11 11 11 11 11 11
13 15 17 17 15 15 15 15 15 15 12 12 11 11 11 11 11 11 11 11 11 11
13 14 16 15 14 14 15 14 14 14 13 11 11 11 11 10 10 10 11 11 11 11
13 15 15 14 14 13 15 14 14 13 12 11 11 11 11 10 10 10 10 10 11 10
13 13 14 13 14 13 14 14 13 12 12 12 11 11 10 10 10 10 10 10 10 10
12 13 14 13 13 13 13 14 13 12 12 12 12 11 11 10 10 10 10 10 10 10
11 12 13 13 13 13 13 12 13 14 13 12 13 11 10 10 10 10 9 9 10 9
11 12 12 13 13 13 13 13 12 12 12 12 12 11 11 10 10 10 10 10 10 10
9 11 13 13 13 13 13 13 12 12 12 12 12 11 11 10 10 10 10 10 10 10
3 6 8 9 11 11 13 12 10 10 9 10 10 10 10 10 10 10 9 9 9 9
0 1 2 4 7 8 9 8 7 6 4 4 4 6 8 9 9 9 8 6 5 5

GFSNIL_925_temp_114.txt.gz
Temp
20 17 18 18 20 17 16 15 15 14 14 14 13 13 13 12 12 12 11 11 12 12
19 17 17 18 19 18 17 16 15 14 14 13 13 13 13 12 12 12 11 11 12 12
17 17 16 17 18 18 18 17 15 14 13 13 13 13 12 12 12 11 11 11 12 12
16 16 16 16 18 18 17 17 14 13 13 13 13 12 12 12 12 11 11 11 11 12
15 16 15 16 17 17 16 16 15 14 13 13 12 12 12 12 11 11 11 11 11 11
14 15 14 15 16 16 16 15 15 14 13 12 12 12 11 11 11 11 11 11 11 11
13 13 14 14 15 15 16 15 15 14 13 12 11 12 11 11 11 11 11 11 11 11
13 13 13 13 14 15 14 15 14 13 13 12 11 11 11 11 11 10 10 11 11 11
12 13 13 13 14 14 14 14 13 13 13 12 11 11 11 11 10 10 10 10 10 11
12 12 12 13 13 13 13 13 13 12 12 12 12 11 11 10 10 10 10 10 10 10
12 12 12 12 12 12 13 13 13 13 13 12 12 11 10 10 10 10 10 10 10 10
6 11 12 12 12 12 12 12 13 12 12 12 11 11 10 10 10 10 10 10 9 10
2 6 9 11 12 12 11 9 9 8 8 7 8 10 10 10 10 10 10 9 9 10
0 0 3 6 8 9 8 6 4 4 3 4 5 6 9 10 9 9 7 6 6 6

GFSNIL_925_temp_120.txt.gz
Temp
13 13 13 14 16 18 19 20 19 18 16 16 16 16 15 16 14 13 13 12 13 13
11 12 11 13 14 15 18 19 18 17 16 16 16 16 15 15 13 13 13 12 13 12
8 9 11 11 13 14 16 18 17 17 16 14 15 15 14 14 13 12 12 13 12 12
7 7 7 10 11 13 15 18 17 17 15 14 14 14 14 13 13 12 12 12 12 12
4 5 6 9 12 14 15 17 17 16 15 14 14 14 13 13 12 12 12 12 12 12
3 4 5 9 13 13 15 17 15 14 14 14 13 13 13 13 12 13 12 12 12 12
3 3 4 7 11 14 16 16 14 14 15 14 13 13 13 13 12 12 12 12 11 11
2 3 4 7 10 13 14 14 14 14 13 13 13 12 12 12 12 12 12 11 11 11
1 2 3 6 10 13 13 13 13 13 13 12 12 14 12 12 11 12 11 11 11 11
0 1 2 5 10 12 13 13 13 12 13 12 13 13 12 12 11 11 11 11 11 11
-1 -0 1 3 7 12 12 12 12 12 12 13 12 12 11 11 11 11 11 11 11 11
-2 -1 0 2 4 12 12 12 12 11 12 13 12 11 11 10 10 10 10 10 10 10
-3 -2 -1 0 4 11 12 10 11 10 10 11 11 11 10 10 10 9 9 9 9 10
-4 -3 -2 0 1 3 6 5 4 5 6 7 9 10 10 10 10 9 8 7 7 8